AFL644 UHWW-VTBS

Flight info

Callsign AFL644
Flight time 6h 51m
Altitude 32100
Route SANAR2G SANAR B451 WQG G341 TGO G212 BUMDU W47 ASAVA W45 NUPTI R343 WUY R474 TEBAK R474 LAVOS R474 CMP W21 NOBER NORTA1C
Aircraft B738/M-SDE2E3FGHIRWXY/LB1

Departure

Time 2026-04-15 22:42
Airport Vladivostok International Airport (UHWW)

Arrival

Time 2026-04-16 05:33
Airport Suvarnabhumi Airport (VTBS)
Time Latitude Longitude Altitude Speed Heading
2026-04-15 22:24 43.39654 132.16350 42 ft 0 kts 151°
2026-04-15 22:33 43.39655 132.16349 42 ft 1 kts 151°
2026-04-15 22:33 43.39669 132.16338 61 ft 3 kts 148°
2026-04-15 22:33 43.39686 132.16322 61 ft 3 kts 143°
2026-04-15 22:33 43.39702 132.16305 66 ft 3 kts 136°
2026-04-15 22:34 43.39716 132.16285 63 ft 3 kts 126°
2026-04-15 22:34 43.39725 132.16262 65 ft 3 kts 105°
2026-04-15 22:34 43.39727 132.16240 61 ft 2 kts 66°
2026-04-15 22:34 43.39725 132.16236 61 ft 0 kts 62°
2026-04-15 22:36 43.39726 132.16237 61 ft 1 kts 62°
2026-04-15 22:37 43.39748 132.16293 65 ft 10 kts 62°
2026-04-15 22:37 43.39784 132.16385 62 ft 11 kts 61°
2026-04-15 22:37 43.39821 132.16475 69 ft 11 kts 61°
2026-04-15 22:37 43.39858 132.16568 63 ft 13 kts 61°
2026-04-15 22:38 43.39904 132.16681 68 ft 13 kts 61°
2026-04-15 22:38 43.39948 132.16790 67 ft 13 kts 62°
2026-04-15 22:38 43.39991 132.16897 61 ft 13 kts 60°
2026-04-15 22:38 43.40032 132.17001 67 ft 12 kts 62°
2026-04-15 22:39 43.40081 132.17094 65 ft 12 kts 28°
2026-04-15 22:39 43.40134 132.17076 64 ft 12 kts 332°
2026-04-15 22:39 43.40209 132.17021 64 ft 13 kts 333°
2026-04-15 22:39 43.40286 132.16963 64 ft 12 kts 329°
2026-04-15 22:40 43.40361 132.16906 64 ft 12 kts 332°
2026-04-15 22:40 43.40434 132.16857 67 ft 10 kts 338°
2026-04-15 22:40 43.40446 132.16822 61 ft 4 kts 254°
2026-04-15 22:41 43.40347 132.16582 67 ft 55 kts 241°
2026-04-15 22:41 43.40043 132.15834 64 ft 122 kts 241°
2026-04-15 22:41 43.39536 132.14579 68 ft 176 kts 241°
2026-04-15 22:41 43.38898 132.13020 656 ft 184 kts 240°
2026-04-15 22:42 43.38291 132.11514 1748 ft 182 kts 240°
2026-04-15 22:42 43.37651 132.09920 2140 ft 201 kts 240°
2026-04-15 22:42 43.36936 132.08149 2346 ft 221 kts 239°
2026-04-15 22:42 43.36172 132.06263 2802 ft 230 kts 239°
2026-04-15 22:43 43.35356 132.04259 3164 ft 247 kts 238°
2026-04-15 22:43 43.34549 132.02146 3898 ft 251 kts 245°
2026-04-15 22:43 43.33966 131.99877 4730 ft 253 kts 250°
2026-04-15 22:43 43.33463 131.97585 5479 ft 255 kts 251°
2026-04-15 22:44 43.32958 131.95234 6252 ft 257 kts 251°
2026-04-15 22:44 43.32445 131.92874 6984 ft 258 kts 252°
2026-04-15 22:44 43.31926 131.90516 7732 ft 258 kts 252°
2026-04-15 22:44 43.31401 131.88160 8479 ft 258 kts 253°
2026-04-15 22:45 43.30871 131.85802 9197 ft 259 kts 253°
2026-04-15 22:45 43.30336 131.83438 9927 ft 260 kts 253°
2026-04-15 22:45 43.29797 131.81064 10552 ft 264 kts 254°
2026-04-15 22:45 43.29230 131.78577 10742 ft 283 kts 253°
2026-04-15 22:46 43.28621 131.75910 10906 ft 303 kts 253°
2026-04-15 22:46 43.27970 131.73068 11065 ft 321 kts 253°
2026-04-15 22:46 43.27280 131.70064 11253 ft 338 kts 253°
2026-04-15 22:46 43.26563 131.66954 11694 ft 345 kts 253°
2026-04-15 22:47 43.25835 131.63801 12313 ft 348 kts 253°
2026-04-15 22:47 43.25102 131.60632 12975 ft 349 kts 253°
2026-04-15 22:47 43.24365 131.57445 13569 ft 352 kts 252°
2026-04-15 22:47 43.23620 131.54228 14165 ft 355 kts 252°
2026-04-15 22:48 43.22878 131.51027 14663 ft 358 kts 252°
2026-04-15 22:48 43.22116 131.47752 15193 ft 361 kts 252°
2026-04-15 22:48 43.21586 131.44389 15725 ft 365 kts 266°
2026-04-15 22:48 43.21706 131.40898 16275 ft 368 kts 274°
2026-04-15 22:49 43.21980 131.37399 16779 ft 371 kts 274°
2026-04-15 22:49 43.22268 131.33863 17271 ft 375 kts 274°
2026-04-15 22:49 43.22546 131.30302 17769 ft 377 kts 274°
2026-04-15 22:49 43.22810 131.26715 18269 ft 379 kts 274°
2026-04-15 22:50 43.23065 131.23102 18759 ft 381 kts 274°
2026-04-15 22:50 43.23316 131.19484 19271 ft 381 kts 273°
2026-04-15 22:50 43.23527 131.15854 19747 ft 382 kts 272°
2026-04-15 22:50 43.23689 131.12507 20163 ft 384 kts 271°
2026-04-15 22:51 43.23854 131.08845 20582 ft 386 kts 271°
2026-04-15 22:51 43.24017 131.05173 21022 ft 387 kts 271°
2026-04-15 22:51 43.24182 131.01481 21475 ft 388 kts 271°
2026-04-15 22:51 43.24350 130.97777 21892 ft 390 kts 271°
2026-04-15 22:52 43.24519 130.94058 22317 ft 392 kts 271°
2026-04-15 22:52 43.24691 130.90320 22736 ft 393 kts 271°
2026-04-15 22:52 43.24863 130.86566 23142 ft 395 kts 271°
2026-04-15 22:52 43.25034 130.82800 23529 ft 397 kts 271°
2026-04-15 22:53 43.25205 130.79021 23909 ft 398 kts 271°
2026-04-15 22:53 43.25376 130.75227 24234 ft 399 kts 271°
2026-04-15 22:53 43.25546 130.71421 24544 ft 400 kts 271°
2026-04-15 22:53 43.25715 130.67606 24858 ft 401 kts 271°
2026-04-15 22:54 43.25883 130.63779 25172 ft 402 kts 271°
2026-04-15 22:54 43.26050 130.59950 25474 ft 403 kts 271°
2026-04-15 22:54 43.26217 130.56106 25722 ft 405 kts 271°
2026-04-15 22:54 43.26383 130.52239 25992 ft 406 kts 271°
2026-04-15 22:55 43.26548 130.48362 26250 ft 408 kts 271°
2026-04-15 22:55 43.26712 130.44478 26535 ft 409 kts 271°
2026-04-15 22:55 43.26876 130.40584 26812 ft 410 kts 271°
2026-04-15 22:55 43.27037 130.36720 27050 ft 411 kts 271°
2026-04-15 22:56 43.27199 130.32792 27296 ft 413 kts 271°
2026-04-15 22:56 43.27359 130.28856 27633 ft 412 kts 271°
2026-04-15 22:56 43.27519 130.24933 28030 ft 410 kts 271°
2026-04-15 22:56 43.27676 130.21040 28441 ft 407 kts 271°
2026-04-15 22:57 43.27830 130.17163 28791 ft 406 kts 271°
2026-04-15 22:57 43.27983 130.13292 29122 ft 406 kts 271°
2026-04-15 22:57 43.28135 130.09424 29452 ft 405 kts 271°
2026-04-15 22:57 43.28284 130.05576 29811 ft 403 kts 271°
2026-04-15 22:58 43.28432 130.01735 30172 ft 402 kts 271°
2026-04-15 22:58 43.28578 129.97906 30449 ft 402 kts 271°
2026-04-15 22:58 43.28724 129.94068 30703 ft 401 kts 271°
2026-04-15 22:58 43.28865 129.90294 30952 ft 401 kts 271°
2026-04-15 22:59 43.29008 129.86476 31228 ft 399 kts 271°
2026-04-15 22:59 43.29149 129.82671 31513 ft 398 kts 271°
2026-04-15 22:59 43.29306 129.78888 31751 ft 398 kts 274°
2026-04-15 22:59 43.29730 129.75126 31960 ft 399 kts 279°
2026-04-15 23:00 43.30277 129.71394 32208 ft 398 kts 279°
2026-04-15 23:00 43.30825 129.67667 32431 ft 398 kts 279°
2026-04-15 23:00 43.31369 129.63936 32651 ft 398 kts 279°
2026-04-15 23:00 43.31899 129.60261 32897 ft 397 kts 279°
2026-04-15 23:01 43.32436 129.56501 33129 ft 396 kts 278°
2026-04-15 23:01 43.32962 129.52790 33327 ft 396 kts 278°
2026-04-15 23:01 43.33480 129.49123 33489 ft 397 kts 278°
2026-04-15 23:01 43.34003 129.45404 33683 ft 396 kts 278°
2026-04-15 23:02 43.34524 129.41691 33866 ft 396 kts 278°
2026-04-15 23:02 43.35044 129.37977 34062 ft 396 kts 278°
2026-04-15 23:02 43.35564 129.34257 34206 ft 396 kts 278°
2026-04-15 23:02 43.36082 129.30535 34243 ft 397 kts 278°
2026-04-15 23:03 43.37120 129.23053 34251 ft 400 kts 278°
2026-04-15 23:03 43.38158 129.15548 34244 ft 398 kts 278°
2026-04-15 23:04 43.39180 129.08116 34238 ft 398 kts 278°
2026-04-15 23:04 43.39675 129.04408 33905 ft 388 kts 284°
2026-04-15 23:04 43.40143 129.00836 34046 ft 372 kts 284°
2026-04-15 23:05 43.41062 128.93884 34160 ft 368 kts 284°
2026-04-15 23:05 43.41973 128.86982 34204 ft 367 kts 284°
2026-04-15 23:06 43.42879 128.80076 34211 ft 367 kts 284°
2026-04-15 23:06 43.43782 128.73153 34201 ft 368 kts 284°
2026-04-15 23:07 43.44683 128.66203 34188 ft 370 kts 284°
2026-04-15 23:07 43.45575 128.59265 34203 ft 370 kts 284°
2026-04-15 23:08 43.46470 128.52284 34189 ft 369 kts 283°
2026-04-15 23:08 43.47359 128.45327 34182 ft 368 kts 283°
2026-04-15 23:09 43.48240 128.38386 34173 ft 368 kts 283°
2026-04-15 23:09 43.49117 128.31453 34173 ft 367 kts 283°
2026-04-15 23:10 43.50002 128.24533 34175 ft 366 kts 283°
2026-04-15 23:10 43.50922 128.17625 34169 ft 366 kts 283°
2026-04-15 23:11 43.51682 128.11894 34165 ft 366 kts 283°
2026-04-15 23:11 43.52737 128.03873 34159 ft 366 kts 283°
2026-04-15 23:12 43.53640 127.96958 34154 ft 367 kts 283°
2026-04-15 23:12 43.54394 127.91161 34144 ft 367 kts 283°
2026-04-15 23:13 43.55286 127.84270 34135 ft 367 kts 282°
2026-04-15 23:13 43.56178 127.77335 34133 ft 367 kts 282°
2026-04-15 23:14 43.57058 127.70393 34124 ft 368 kts 282°
2026-04-15 23:14 43.57935 127.63434 34133 ft 368 kts 282°
2026-04-15 23:15 43.58810 127.56463 34111 ft 369 kts 282°
2026-04-15 23:15 43.59682 127.49479 34112 ft 369 kts 282°
2026-04-15 23:16 43.60549 127.42500 34104 ft 368 kts 281°
2026-04-15 23:16 43.61410 127.35540 34103 ft 368 kts 282°
2026-04-15 23:17 43.62267 127.28578 34096 ft 367 kts 281°
2026-04-15 23:17 43.63053 127.21657 34094 ft 367 kts 281°
2026-04-15 23:18 43.63801 127.14700 34096 ft 366 kts 280°
2026-04-15 23:18 43.64546 127.07763 34101 ft 365 kts 280°
2026-04-15 23:19 43.65293 127.00816 34075 ft 365 kts 280°
2026-04-15 23:19 43.66035 126.93885 34079 ft 365 kts 280°
2026-04-15 23:20 43.66777 126.86943 34075 ft 365 kts 280°
2026-04-15 23:20 43.67513 126.79994 34058 ft 366 kts 280°
2026-04-15 23:21 43.68243 126.73073 34057 ft 366 kts 279°
2026-04-15 23:21 43.68972 126.66125 34041 ft 365 kts 279°
2026-04-15 23:22 43.69696 126.59182 34051 ft 365 kts 279°
2026-04-15 23:22 43.70414 126.52248 34050 ft 364 kts 279°
2026-04-15 23:23 43.71128 126.45311 34048 ft 364 kts 279°
2026-04-15 23:23 43.71838 126.38374 34038 ft 364 kts 279°
2026-04-15 23:24 43.72541 126.31454 34042 ft 364 kts 278°
2026-04-15 23:24 43.73238 126.24562 34031 ft 364 kts 278°
2026-04-15 23:25 43.73933 126.17637 34033 ft 363 kts 278°
2026-04-15 23:25 43.74625 126.10704 34034 ft 363 kts 278°
2026-04-15 23:26 43.75313 126.03780 34031 ft 363 kts 278°
2026-04-15 23:26 43.75991 125.96896 34035 ft 363 kts 278°
2026-04-15 23:27 43.76753 125.89990 34033 ft 363 kts 279°
2026-04-15 23:27 43.77216 125.83052 34027 ft 364 kts 269°
2026-04-15 23:28 43.76846 125.76052 34027 ft 365 kts 268°
2026-04-15 23:28 43.76453 125.69061 34035 ft 365 kts 268°
2026-04-15 23:29 43.76068 125.62101 34030 ft 366 kts 268°
2026-04-15 23:29 43.75682 125.55082 34028 ft 366 kts 268°
2026-04-15 23:30 43.75293 125.48054 34032 ft 367 kts 268°
2026-04-15 23:30 43.74899 125.41013 34033 ft 367 kts 268°
2026-04-15 23:31 43.74501 125.33963 34033 ft 368 kts 268°
2026-04-15 23:31 43.74098 125.26906 34031 ft 368 kts 267°
2026-04-15 23:32 43.73690 125.19854 34033 ft 368 kts 267°
2026-04-15 23:32 43.73279 125.12796 34032 ft 368 kts 267°
2026-04-15 23:33 43.72863 125.05743 34033 ft 368 kts 267°
2026-04-15 23:33 43.72442 124.98695 34045 ft 368 kts 267°
2026-04-15 23:34 43.72018 124.91647 34047 ft 367 kts 267°
2026-04-15 23:36 43.70504 124.67076 34050 ft 367 kts 266°
2026-04-15 23:36 43.70061 124.60045 34051 ft 367 kts 266°
2026-04-15 23:37 43.69614 124.53027 34056 ft 367 kts 266°
2026-04-15 23:37 43.69163 124.46001 34058 ft 367 kts 266°
2026-04-15 23:38 43.68708 124.38972 34061 ft 366 kts 266°
2026-04-15 23:38 43.68249 124.31965 34062 ft 366 kts 266°
2026-04-15 23:39 43.67813 124.24949 34067 ft 366 kts 266°
2026-04-15 23:39 43.67423 124.17979 34065 ft 366 kts 266°
2026-04-15 23:40 43.67026 124.10955 34066 ft 366 kts 266°
2026-04-15 23:40 43.66622 124.03937 34068 ft 366 kts 266°
2026-04-15 23:41 43.66210 123.96917 34068 ft 366 kts 266°
2026-04-15 23:41 43.65794 123.89893 34070 ft 367 kts 266°
2026-04-15 23:42 43.65373 123.82878 34071 ft 367 kts 266°
2026-04-15 23:42 43.64951 123.75897 34070 ft 367 kts 265°
2026-04-15 23:43 43.64521 123.68873 34073 ft 367 kts 265°
2026-04-15 23:43 43.64087 123.61841 34072 ft 367 kts 265°
2026-04-15 23:44 43.63648 123.54808 34075 ft 368 kts 265°
2026-04-15 23:44 43.63204 123.47768 34076 ft 368 kts 265°
2026-04-15 23:45 43.62759 123.40776 34088 ft 368 kts 265°
2026-04-15 23:45 43.62308 123.33742 34079 ft 368 kts 265°
2026-04-15 23:46 43.61852 123.26703 34086 ft 368 kts 265°
2026-04-15 23:46 43.61391 123.19658 34085 ft 368 kts 265°
2026-04-15 23:47 43.61011 123.12603 34090 ft 369 kts 266°
2026-04-15 23:47 43.60669 123.05539 34088 ft 369 kts 266°
2026-04-15 23:48 43.60318 122.98479 34092 ft 369 kts 265°
2026-04-15 23:48 43.59958 122.91455 34094 ft 369 kts 265°
2026-04-15 23:49 43.59588 122.84381 34093 ft 370 kts 265°
2026-04-15 23:49 43.59213 122.77299 34096 ft 370 kts 265°
2026-04-15 23:50 43.58834 122.70222 34100 ft 370 kts 265°
2026-04-15 23:50 43.58450 122.63144 34098 ft 370 kts 265°
2026-04-15 23:51 43.57866 122.52518 34107 ft 371 kts 265°
2026-04-15 23:51 43.57471 122.45430 34108 ft 371 kts 265°
2026-04-15 23:52 43.57074 122.38385 34109 ft 371 kts 264°
2026-04-15 23:52 43.56671 122.31302 34109 ft 371 kts 264°
2026-04-15 23:53 43.56143 122.24234 34101 ft 371 kts 257°
2026-04-15 23:53 43.54473 122.17509 34109 ft 372 kts 248°
2026-04-15 23:54 43.51769 122.11375 34125 ft 376 kts 239°
2026-04-15 23:54 43.48706 122.05512 34120 ft 377 kts 238°
2026-04-15 23:55 43.45635 121.99654 34115 ft 377 kts 239°
2026-04-15 23:55 43.42595 121.93832 34115 ft 377 kts 239°
2026-04-15 23:56 43.39536 121.87965 34113 ft 378 kts 238°
2026-04-15 23:56 43.36473 121.82095 34114 ft 378 kts 238°
2026-04-15 23:57 43.33406 121.76226 34112 ft 378 kts 238°
2026-04-15 23:57 43.30335 121.70361 34118 ft 379 kts 238°
2026-04-15 23:58 43.27254 121.64489 34119 ft 379 kts 238°
2026-04-15 23:58 43.24168 121.58618 34120 ft 380 kts 238°
2026-04-15 23:59 43.21070 121.52739 34119 ft 380 kts 238°
2026-04-15 23:59 43.17967 121.46860 34117 ft 381 kts 238°
2026-04-16 00:00 43.14854 121.40973 34121 ft 381 kts 238°
2026-04-16 00:00 43.12265 121.36086 34116 ft 381 kts 238°
2026-04-16 00:01 43.08640 121.29258 34118 ft 382 kts 238°
2026-04-16 00:01 43.05507 121.23370 34119 ft 382 kts 238°
2026-04-16 00:02 43.02907 121.18492 34127 ft 382 kts 238°
2026-04-16 00:02 42.99771 121.12620 34130 ft 382 kts 238°
2026-04-16 00:03 42.96630 121.06748 34116 ft 383 kts 237°
2026-04-16 00:03 42.93485 121.00880 34117 ft 383 kts 237°
2026-04-16 00:04 42.90351 120.95047 34115 ft 383 kts 237°
2026-04-16 00:04 42.87197 120.89186 34127 ft 383 kts 237°
2026-04-16 00:05 42.84040 120.83333 34131 ft 383 kts 237°
2026-04-16 00:05 42.80878 120.77480 34125 ft 384 kts 237°
2026-04-16 00:06 42.77707 120.71622 34130 ft 384 kts 237°
2026-04-16 00:06 42.74531 120.65768 34121 ft 385 kts 237°
2026-04-16 00:07 42.71350 120.59914 34125 ft 385 kts 237°
2026-04-16 00:07 42.68157 120.54052 34118 ft 385 kts 237°
2026-04-16 00:08 42.64983 120.48235 34118 ft 386 kts 237°
2026-04-16 00:08 42.61782 120.42379 34115 ft 386 kts 237°
2026-04-16 00:09 42.58580 120.36533 34111 ft 386 kts 237°
2026-04-16 00:09 42.55371 120.30686 34104 ft 387 kts 237°
2026-04-16 00:10 42.52157 120.24842 34111 ft 387 kts 236°
2026-04-16 00:10 42.48937 120.18999 34104 ft 387 kts 236°
2026-04-16 00:11 42.45711 120.13155 34096 ft 387 kts 236°
2026-04-16 00:11 42.42485 120.07322 34100 ft 387 kts 236°
2026-04-16 00:12 42.39249 120.01485 34094 ft 387 kts 236°
2026-04-16 00:12 42.36035 119.95696 34093 ft 387 kts 236°
2026-04-16 00:13 42.32801 119.89884 34088 ft 387 kts 236°
2026-04-16 00:13 42.29567 119.84083 34082 ft 386 kts 236°
2026-04-16 00:14 42.26336 119.78298 34090 ft 385 kts 235°
2026-04-16 00:14 42.23107 119.72528 34085 ft 385 kts 235°
2026-04-16 00:15 42.19873 119.66760 34083 ft 385 kts 235°
2026-04-16 00:15 42.16643 119.61009 34086 ft 384 kts 235°
2026-04-16 00:16 42.13416 119.55278 34079 ft 384 kts 235°
2026-04-16 00:16 42.10183 119.49544 34085 ft 384 kts 234°
2026-04-16 00:17 42.06968 119.43851 34086 ft 385 kts 234°
2026-04-16 00:17 42.03725 119.38122 34081 ft 385 kts 234°
2026-04-16 00:18 42.00474 119.32390 34080 ft 385 kts 234°
2026-04-16 00:18 41.97220 119.26663 34077 ft 385 kts 234°
2026-04-16 00:19 41.93964 119.20943 34073 ft 385 kts 234°
2026-04-16 00:19 41.90704 119.15228 34080 ft 386 kts 234°
2026-04-16 00:20 41.87437 119.09510 34068 ft 386 kts 234°
2026-04-16 00:20 41.84164 119.03793 34070 ft 386 kts 234°
2026-04-16 00:21 41.80894 118.98092 34066 ft 386 kts 234°
2026-04-16 00:21 41.77622 118.92397 34050 ft 385 kts 233°
2026-04-16 00:22 41.74371 118.86751 34063 ft 385 kts 233°
2026-04-16 00:22 41.71093 118.81067 34058 ft 386 kts 233°
2026-04-16 00:23 41.67802 118.75373 34071 ft 386 kts 233°
2026-04-16 00:23 41.64507 118.69680 34068 ft 388 kts 233°
2026-04-16 00:24 41.61193 118.63967 34057 ft 389 kts 233°
2026-04-16 00:24 41.57868 118.58245 34072 ft 390 kts 233°
2026-04-16 00:25 41.54534 118.52516 34074 ft 391 kts 233°
2026-04-16 00:25 41.51193 118.46788 34080 ft 391 kts 233°
2026-04-16 00:26 41.48102 118.40811 34095 ft 392 kts 238°
2026-04-16 00:26 41.45286 118.34619 34083 ft 393 kts 238°
2026-04-16 00:27 41.42436 118.28374 34080 ft 395 kts 238°
2026-04-16 00:27 41.39568 118.22128 34082 ft 396 kts 238°
2026-04-16 00:28 41.36684 118.15873 34094 ft 397 kts 238°
2026-04-16 00:28 41.33790 118.09612 34084 ft 397 kts 238°
2026-04-16 00:29 41.30885 118.03339 34086 ft 398 kts 238°
2026-04-16 00:29 41.27974 117.97067 34091 ft 398 kts 238°
2026-04-16 00:30 41.25067 117.90816 34088 ft 398 kts 238°
2026-04-16 00:30 41.22150 117.84555 34083 ft 398 kts 237°
2026-04-16 00:31 41.19230 117.78303 34076 ft 398 kts 238°
2026-04-16 00:31 41.16305 117.72050 34076 ft 399 kts 238°
2026-04-16 00:32 41.13374 117.65797 34078 ft 399 kts 238°
2026-04-16 00:32 41.10440 117.59550 34077 ft 399 kts 238°
2026-04-16 00:33 41.07523 117.53350 34085 ft 399 kts 238°
2026-04-16 00:33 41.04369 117.47311 34071 ft 399 kts 226°
2026-04-16 00:34 40.99985 117.42796 34071 ft 402 kts 212°
2026-04-16 00:34 40.94782 117.39961 34074 ft 406 kts 204°
2026-04-16 00:35 40.89484 117.37347 34077 ft 406 kts 204°
2026-04-16 00:35 40.84198 117.34686 34071 ft 407 kts 205°
2026-04-16 00:36 40.78907 117.32001 34074 ft 408 kts 205°
2026-04-16 00:36 40.73737 117.28990 34062 ft 403 kts 218°
2026-04-16 00:37 40.69778 117.23931 34078 ft 400 kts 235°
2026-04-16 00:37 40.67129 117.17495 34077 ft 401 kts 243°
2026-04-16 00:38 40.64620 117.10917 34075 ft 402 kts 243°
2026-04-16 00:38 40.62079 117.04343 34078 ft 403 kts 242°
2026-04-16 00:39 40.59505 116.97755 34080 ft 405 kts 242°
2026-04-16 00:39 40.56919 116.91169 34080 ft 406 kts 242°
2026-04-16 00:40 40.54325 116.84584 34083 ft 406 kts 242°
2026-04-16 00:40 40.51739 116.78030 34088 ft 406 kts 242°
2026-04-16 00:41 40.49139 116.71455 34089 ft 406 kts 242°
2026-04-16 00:41 40.46534 116.64882 34071 ft 405 kts 242°
2026-04-16 00:42 40.43932 116.58333 34085 ft 404 kts 242°
2026-04-16 00:42 40.41335 116.51807 34088 ft 403 kts 242°
2026-04-16 00:43 40.38743 116.45307 34084 ft 401 kts 242°
2026-04-16 00:43 40.36157 116.38836 34089 ft 400 kts 242°
2026-04-16 00:44 40.33471 116.32448 34082 ft 400 kts 236°
2026-04-16 00:44 40.29955 116.26812 34088 ft 400 kts 230°
2026-04-16 00:45 40.26348 116.21314 34079 ft 401 kts 231°
2026-04-16 00:45 40.22715 116.15748 34084 ft 403 kts 231°
2026-04-16 00:46 40.19076 116.10159 34083 ft 404 kts 231°
2026-04-16 00:46 40.15424 116.04553 34088 ft 405 kts 231°
2026-04-16 00:47 40.11762 115.98939 34078 ft 407 kts 231°
2026-04-16 00:47 40.08081 115.93308 34076 ft 407 kts 231°
2026-04-16 00:48 40.04391 115.87673 34079 ft 408 kts 231°
2026-04-16 00:48 40.00695 115.82039 34070 ft 409 kts 231°
2026-04-16 00:50 39.86556 115.60580 34059 ft 406 kts 231°
2026-04-16 00:51 39.82874 115.55015 34047 ft 405 kts 231°
2026-04-16 00:51 39.79194 115.49461 34049 ft 404 kts 230°
2026-04-16 00:52 39.75686 115.43761 34045 ft 403 kts 238°
2026-04-16 00:52 39.73095 115.37328 34059 ft 400 kts 243°
2026-04-16 00:53 39.70594 115.30916 34066 ft 400 kts 243°
2026-04-16 00:53 39.68049 115.24462 34054 ft 401 kts 243°
2026-04-16 00:54 39.65482 115.17991 34050 ft 403 kts 242°
2026-04-16 00:54 39.62910 115.11527 34051 ft 404 kts 242°
2026-04-16 00:55 39.60337 115.05077 34054 ft 406 kts 242°
2026-04-16 00:55 39.57740 114.98578 34057 ft 406 kts 242°
2026-04-16 00:56 39.55128 114.92057 34047 ft 407 kts 242°
2026-04-16 00:56 39.52527 114.85576 34037 ft 407 kts 242°
2026-04-16 00:57 39.48608 114.75838 34035 ft 406 kts 242°
2026-04-16 00:58 39.45997 114.69367 34048 ft 405 kts 242°
2026-04-16 00:58 39.43393 114.62925 34036 ft 404 kts 242°
2026-04-16 00:59 39.40791 114.56499 34032 ft 402 kts 242°
2026-04-16 00:59 39.38190 114.50097 34040 ft 401 kts 242°
2026-04-16 01:00 39.35575 114.43734 34043 ft 400 kts 242°
2026-04-16 01:00 39.32954 114.37372 34037 ft 400 kts 242°
2026-04-16 01:01 39.30336 114.31018 34027 ft 401 kts 242°
2026-04-16 01:01 39.27729 114.24661 34031 ft 401 kts 242°
2026-04-16 01:02 39.25091 114.18372 34028 ft 401 kts 236°
2026-04-16 01:02 39.23246 114.15682 34042 ft 402 kts 223°
2026-04-16 01:02 39.20992 114.13525 34029 ft 406 kts 213°
2026-04-16 01:02 39.18410 114.12012 34016 ft 412 kts 200°
2026-04-16 01:03 39.15643 114.11009 34040 ft 413 kts 199°
2026-04-16 01:03 39.10078 114.09109 34029 ft 414 kts 199°
2026-04-16 01:04 39.04512 114.07182 34019 ft 415 kts 199°
2026-04-16 01:04 38.98950 114.05216 34024 ft 413 kts 200°
2026-04-16 01:05 38.93437 114.03257 34005 ft 408 kts 199°
2026-04-16 01:05 38.87983 114.01319 34007 ft 405 kts 200°
2026-04-16 01:06 38.82569 113.99399 34011 ft 402 kts 200°
2026-04-16 01:06 38.77150 113.97479 34026 ft 406 kts 200°
2026-04-16 01:07 38.71660 113.95537 34022 ft 411 kts 200°
2026-04-16 01:07 38.66163 113.93598 34023 ft 414 kts 200°
2026-04-16 01:08 38.60606 113.91649 34021 ft 412 kts 200°
2026-04-16 01:08 38.55128 113.89738 34025 ft 404 kts 200°
2026-04-16 01:09 38.49716 113.87846 34030 ft 402 kts 200°
2026-04-16 01:09 38.44340 113.85968 34026 ft 400 kts 200°
2026-04-16 01:10 38.38972 113.84096 34033 ft 399 kts 200°
2026-04-16 01:10 38.33605 113.82229 34034 ft 399 kts 201°
2026-04-16 01:11 38.28249 113.80375 34039 ft 400 kts 201°
2026-04-16 01:11 38.22866 113.78516 34052 ft 401 kts 201°
2026-04-16 01:12 38.17487 113.76659 34032 ft 405 kts 201°
2026-04-16 01:12 38.12028 113.74779 34036 ft 407 kts 201°
2026-04-16 01:13 38.06563 113.72900 34047 ft 407 kts 201°
2026-04-16 01:13 38.01086 113.71019 34050 ft 408 kts 201°
2026-04-16 01:14 37.95596 113.69137 34053 ft 408 kts 201°
2026-04-16 01:14 37.90118 113.67261 34047 ft 408 kts 201°
2026-04-16 01:15 37.84643 113.65390 34055 ft 407 kts 201°
2026-04-16 01:15 37.79187 113.63528 34059 ft 406 kts 201°
2026-04-16 01:16 37.73743 113.61672 34059 ft 404 kts 201°
2026-04-16 01:16 37.68320 113.59827 34062 ft 403 kts 201°
2026-04-16 01:17 37.62918 113.57991 34069 ft 402 kts 201°
2026-04-16 01:17 37.57550 113.56169 34073 ft 401 kts 201°
2026-04-16 01:18 37.52169 113.54346 34081 ft 400 kts 201°
2026-04-16 01:18 37.46757 113.52512 34092 ft 405 kts 201°
2026-04-16 01:19 37.41272 113.50657 34091 ft 410 kts 201°
2026-04-16 01:19 37.35750 113.48796 34081 ft 408 kts 201°
2026-04-16 01:20 37.30306 113.46969 34082 ft 401 kts 202°
2026-04-16 01:20 37.24920 113.45159 34105 ft 400 kts 202°
2026-04-16 01:21 37.19577 113.43363 34101 ft 399 kts 202°
2026-04-16 01:21 37.14229 113.41569 34110 ft 397 kts 202°
2026-04-16 01:22 37.08890 113.39781 34109 ft 397 kts 202°
2026-04-16 01:22 37.03547 113.37994 34107 ft 397 kts 202°
2026-04-16 01:23 36.98195 113.36207 34113 ft 397 kts 202°
2026-04-16 01:23 36.92846 113.34424 34101 ft 398 kts 202°
2026-04-16 01:24 36.87496 113.32643 34096 ft 398 kts 202°
2026-04-16 01:24 36.82134 113.30860 34099 ft 399 kts 202°
2026-04-16 01:25 36.76754 113.29075 34102 ft 401 kts 203°
2026-04-16 01:25 36.71399 113.27301 34107 ft 400 kts 203°
2026-04-16 01:26 36.66009 113.25518 34082 ft 400 kts 203°
2026-04-16 01:26 36.60637 113.23744 34086 ft 398 kts 204°
2026-04-16 01:27 36.55293 113.21981 34091 ft 396 kts 204°
2026-04-16 01:27 36.50010 113.20241 34088 ft 394 kts 204°
2026-04-16 01:28 36.44728 113.18502 34082 ft 392 kts 204°
2026-04-16 01:28 36.39476 113.16776 34092 ft 389 kts 204°
2026-04-16 01:29 36.34261 113.15065 34094 ft 386 kts 204°
2026-04-16 01:29 36.29080 113.13365 34102 ft 384 kts 204°
2026-04-16 01:30 36.23933 113.11636 34088 ft 379 kts 207°
2026-04-16 01:30 36.19126 113.09195 34096 ft 371 kts 212°
2026-04-16 01:31 36.14375 113.06681 34095 ft 371 kts 212°
2026-04-16 01:31 36.09634 113.04190 34091 ft 374 kts 211°
2026-04-16 01:32 36.04837 113.01684 34104 ft 375 kts 211°
2026-04-16 01:32 36.00015 112.99170 34094 ft 377 kts 211°
2026-04-16 01:33 35.95173 112.96651 34087 ft 378 kts 211°
2026-04-16 01:33 35.90318 112.94127 34107 ft 379 kts 211°
2026-04-16 01:34 35.85437 112.91592 34074 ft 381 kts 211°
2026-04-16 01:34 35.80546 112.89058 34094 ft 381 kts 210°
2026-04-16 01:35 35.75688 112.86536 34101 ft 381 kts 210°
2026-04-16 01:35 35.70794 112.83987 34095 ft 381 kts 210°
2026-04-16 01:36 35.65905 112.81443 34088 ft 381 kts 210°
2026-04-16 01:36 35.61026 112.78909 34096 ft 379 kts 210°
2026-04-16 01:37 35.56176 112.76390 34094 ft 378 kts 210°
2026-04-16 01:37 35.51369 112.73883 34095 ft 377 kts 210°
2026-04-16 01:38 35.46538 112.71364 34094 ft 377 kts 210°
2026-04-16 01:38 35.42519 112.69272 34091 ft 377 kts 210°
2026-04-16 01:39 35.37689 112.66761 34081 ft 377 kts 209°
2026-04-16 01:39 35.32860 112.64254 34082 ft 377 kts 209°
2026-04-16 01:40 35.28030 112.61752 34049 ft 377 kts 209°
2026-04-16 01:40 35.23218 112.59258 34123 ft 376 kts 209°
2026-04-16 01:41 35.18352 112.56748 34091 ft 383 kts 208°
2026-04-16 01:41 35.13413 112.54230 34083 ft 386 kts 208°
2026-04-16 01:42 35.08342 112.51962 34095 ft 391 kts 203°
2026-04-16 01:42 35.03149 112.50080 34088 ft 392 kts 203°
2026-04-16 01:43 34.97901 112.48178 34086 ft 390 kts 203°
2026-04-16 01:43 34.92742 112.46290 34081 ft 389 kts 203°
2026-04-16 01:44 34.87573 112.44395 34084 ft 387 kts 203°
2026-04-16 01:44 34.82424 112.42508 34083 ft 385 kts 203°
2026-04-16 01:45 34.77293 112.40635 34086 ft 385 kts 201°
2026-04-16 01:45 34.71915 112.39698 34084 ft 398 kts 188°
2026-04-16 01:46 34.66323 112.40111 34082 ft 404 kts 184°
2026-04-16 01:46 34.60728 112.40634 34084 ft 403 kts 184°
2026-04-16 01:47 34.55135 112.41137 34089 ft 403 kts 184°
2026-04-16 01:47 34.49541 112.41623 34086 ft 403 kts 184°
2026-04-16 01:48 34.43944 112.42103 34097 ft 404 kts 184°
2026-04-16 01:48 34.38326 112.42583 34094 ft 405 kts 184°
2026-04-16 01:49 34.32724 112.43061 34093 ft 407 kts 184°
2026-04-16 01:49 34.27055 112.43545 34091 ft 409 kts 184°
2026-04-16 01:50 34.21377 112.44030 34089 ft 409 kts 184°
2026-04-16 01:50 34.15679 112.44516 34088 ft 410 kts 184°
2026-04-16 01:51 34.09974 112.45002 34087 ft 412 kts 184°
2026-04-16 01:51 34.04249 112.45489 34088 ft 412 kts 184°
2026-04-16 01:52 33.98519 112.45975 34089 ft 413 kts 184°
2026-04-16 01:52 33.92825 112.46458 34088 ft 413 kts 184°
2026-04-16 01:53 33.87093 112.46943 34084 ft 413 kts 184°
2026-04-16 01:53 33.81346 112.47429 34077 ft 414 kts 183°
2026-04-16 01:54 33.75596 112.47915 34079 ft 414 kts 183°
2026-04-16 01:54 33.69879 112.48397 34085 ft 414 kts 183°
2026-04-16 01:55 33.64086 112.48885 34081 ft 415 kts 184°
2026-04-16 01:55 33.58366 112.49370 34087 ft 415 kts 183°
2026-04-16 01:56 33.52592 112.49861 34086 ft 416 kts 183°
2026-04-16 01:56 33.46805 112.50352 34082 ft 417 kts 183°
2026-04-16 01:57 33.41007 112.50844 34089 ft 418 kts 183°
2026-04-16 01:57 33.35202 112.51335 34092 ft 418 kts 183°
2026-04-16 01:58 33.29380 112.51828 34088 ft 419 kts 183°
2026-04-16 01:58 33.23550 112.52320 34082 ft 420 kts 183°
2026-04-16 01:59 33.17741 112.52810 34087 ft 421 kts 183°
2026-04-16 01:59 33.11892 112.53303 34080 ft 421 kts 183°
2026-04-16 02:00 33.06040 112.53796 34086 ft 421 kts 183°
2026-04-16 02:00 33.00192 112.54288 34085 ft 421 kts 183°
2026-04-16 02:01 32.94347 112.54757 34087 ft 418 kts 186°
2026-04-16 02:01 32.88683 112.54033 34086 ft 403 kts 201°
2026-04-16 02:02 32.83340 112.52113 34081 ft 401 kts 202°
2026-04-16 02:02 32.77983 112.50288 34083 ft 400 kts 201°
2026-04-16 02:03 32.72611 112.48558 34085 ft 399 kts 201°
2026-04-16 02:03 32.67257 112.46837 34081 ft 398 kts 201°
2026-04-16 02:04 32.59291 112.44259 34083 ft 397 kts 201°
2026-04-16 02:04 32.53972 112.42536 34085 ft 396 kts 201°
2026-04-16 02:05 32.48662 112.40818 34091 ft 395 kts 201°
2026-04-16 02:05 32.43361 112.39104 34090 ft 395 kts 201°
2026-04-16 02:06 32.38066 112.37395 34090 ft 394 kts 201°
2026-04-16 02:06 32.32772 112.35689 34091 ft 394 kts 201°
2026-04-16 02:07 32.27479 112.33984 34091 ft 394 kts 201°
2026-04-16 02:07 32.22224 112.32294 34095 ft 393 kts 201°
2026-04-16 02:08 32.16938 112.30596 34091 ft 393 kts 201°
2026-04-16 02:08 32.11658 112.28901 34092 ft 393 kts 201°
2026-04-16 02:09 32.06357 112.27303 34090 ft 396 kts 197°
2026-04-16 02:09 32.00917 112.26190 34090 ft 396 kts 196°
2026-04-16 02:10 31.95515 112.25120 34091 ft 396 kts 196°
2026-04-16 02:10 31.90086 112.24030 34088 ft 396 kts 196°
2026-04-16 02:11 31.84656 112.22929 34089 ft 396 kts 196°
2026-04-16 02:11 31.79232 112.21828 34086 ft 395 kts 197°
2026-04-16 02:12 31.73812 112.20729 34082 ft 395 kts 197°
2026-04-16 02:12 31.68397 112.19632 34093 ft 395 kts 197°
2026-04-16 02:13 31.62983 112.18536 34084 ft 395 kts 197°
2026-04-16 02:13 31.57569 112.17442 34091 ft 395 kts 197°
2026-04-16 02:14 31.52152 112.16348 34093 ft 395 kts 197°
2026-04-16 02:14 31.46730 112.15255 34087 ft 395 kts 197°
2026-04-16 02:15 31.41333 112.14168 34087 ft 396 kts 197°
2026-04-16 02:15 31.35935 112.12954 34092 ft 394 kts 199°
2026-04-16 02:16 31.30569 112.11609 34086 ft 394 kts 199°
2026-04-16 02:16 31.25201 112.10271 34083 ft 393 kts 199°
2026-04-16 02:17 31.19857 112.08956 34080 ft 392 kts 199°
2026-04-16 02:17 31.14518 112.07653 34097 ft 393 kts 199°
2026-04-16 02:18 31.09155 112.06346 34084 ft 395 kts 199°
2026-04-16 02:18 31.03773 112.05037 34083 ft 395 kts 199°
2026-04-16 02:19 30.98378 112.03726 34085 ft 397 kts 199°
2026-04-16 02:19 30.92968 112.02413 34088 ft 398 kts 199°
2026-04-16 02:20 30.87538 112.01097 34084 ft 399 kts 199°
2026-04-16 02:20 30.82139 111.99790 34085 ft 399 kts 199°
2026-04-16 02:21 30.76701 111.98474 34082 ft 399 kts 199°
2026-04-16 02:21 30.71262 111.97161 34081 ft 399 kts 199°
2026-04-16 02:22 30.65835 111.95851 34087 ft 398 kts 199°
2026-04-16 02:22 30.60412 111.94546 34085 ft 397 kts 199°
2026-04-16 02:23 30.55000 111.93244 34081 ft 397 kts 199°
2026-04-16 02:23 30.49595 111.91944 34086 ft 396 kts 199°
2026-04-16 02:24 30.45109 111.90867 34090 ft 396 kts 199°
2026-04-16 02:24 30.39706 111.89570 34087 ft 396 kts 199°
2026-04-16 02:25 30.34305 111.88276 34084 ft 396 kts 199°
2026-04-16 02:25 30.28894 111.86980 34090 ft 397 kts 199°
2026-04-16 02:26 30.23477 111.85684 34085 ft 398 kts 199°
2026-04-16 02:26 30.18051 111.84389 34089 ft 398 kts 199°
2026-04-16 02:27 30.12659 111.83102 34084 ft 399 kts 199°
2026-04-16 02:27 30.07217 111.81805 34086 ft 399 kts 199°
2026-04-16 02:28 30.01781 111.80511 34086 ft 399 kts 199°
2026-04-16 02:28 29.96337 111.79217 34086 ft 399 kts 199°
2026-04-16 02:29 29.90886 111.77922 34089 ft 399 kts 199°
2026-04-16 02:29 29.85438 111.76630 34091 ft 399 kts 199°
2026-04-16 02:30 29.80021 111.75346 34090 ft 399 kts 199°
2026-04-16 02:30 29.74580 111.74059 34085 ft 399 kts 199°
2026-04-16 02:31 29.69142 111.72773 34081 ft 398 kts 199°
2026-04-16 02:31 29.63718 111.71492 34083 ft 397 kts 199°
2026-04-16 02:32 29.58302 111.70214 34084 ft 397 kts 199°
2026-04-16 02:32 29.52919 111.68945 34083 ft 396 kts 199°
2026-04-16 02:33 29.47517 111.67673 34087 ft 396 kts 199°
2026-04-16 02:33 29.42116 111.66402 34085 ft 395 kts 199°
2026-04-16 02:34 29.36726 111.65136 34088 ft 395 kts 199°
2026-04-16 02:34 29.31175 111.64530 34091 ft 404 kts 191°
2026-04-16 02:35 29.25551 111.64275 34086 ft 404 kts 191°
2026-04-16 02:35 29.19921 111.64003 34085 ft 405 kts 191°
2026-04-16 02:36 29.14297 111.63716 34090 ft 405 kts 191°
2026-04-16 02:36 29.08696 111.63428 34086 ft 406 kts 191°
2026-04-16 02:37 29.03057 111.63137 34087 ft 406 kts 191°
2026-04-16 02:37 28.97408 111.62847 34085 ft 406 kts 191°
2026-04-16 02:38 28.91758 111.62557 34088 ft 407 kts 191°
2026-04-16 02:38 28.86096 111.62266 34085 ft 407 kts 191°
2026-04-16 02:39 28.80466 111.61825 34092 ft 404 kts 194°
2026-04-16 02:39 28.74878 111.61155 34091 ft 404 kts 194°
2026-04-16 02:40 28.69270 111.60496 34086 ft 405 kts 194°
2026-04-16 02:40 28.63656 111.59867 34087 ft 405 kts 194°
2026-04-16 02:41 28.58034 111.59250 34090 ft 405 kts 194°
2026-04-16 02:41 28.52447 111.58636 34090 ft 407 kts 194°
2026-04-16 02:42 28.46798 111.58016 34089 ft 408 kts 194°
2026-04-16 02:42 28.41140 111.57399 34082 ft 407 kts 194°
2026-04-16 02:43 28.35507 111.56804 34080 ft 407 kts 193°
2026-04-16 02:43 28.29876 111.56212 34086 ft 406 kts 193°
2026-04-16 02:44 28.24251 111.55618 34091 ft 407 kts 193°
2026-04-16 02:44 28.18616 111.55023 34067 ft 407 kts 193°
2026-04-16 02:45 28.12980 111.54429 34087 ft 406 kts 193°
2026-04-16 02:45 28.07386 111.53840 34088 ft 405 kts 193°
2026-04-16 02:46 28.01771 111.53250 34085 ft 406 kts 193°
2026-04-16 02:46 27.96148 111.52659 34090 ft 406 kts 193°
2026-04-16 02:47 27.90503 111.52066 34075 ft 407 kts 193°
2026-04-16 02:47 27.84851 111.51473 34087 ft 408 kts 193°
2026-04-16 02:48 27.79183 111.50878 34082 ft 409 kts 193°
2026-04-16 02:48 27.73496 111.50283 34075 ft 410 kts 193°
2026-04-16 02:49 27.67837 111.49692 34078 ft 411 kts 193°
2026-04-16 02:49 27.62144 111.49097 34075 ft 411 kts 193°
2026-04-16 02:50 27.56438 111.48502 34072 ft 411 kts 192°
2026-04-16 02:50 27.50738 111.47908 34074 ft 412 kts 192°
2026-04-16 02:51 27.45027 111.47313 34082 ft 411 kts 192°
2026-04-16 02:51 27.39311 111.46718 34081 ft 412 kts 192°
2026-04-16 02:52 27.33590 111.46124 34080 ft 413 kts 192°
2026-04-16 02:52 27.27851 111.45528 34073 ft 414 kts 192°
2026-04-16 02:53 27.22102 111.44932 34080 ft 415 kts 192°
2026-04-16 02:53 27.16374 111.44338 34074 ft 417 kts 192°
2026-04-16 02:54 27.10590 111.43740 34076 ft 418 kts 192°
2026-04-16 02:54 27.04788 111.43140 34067 ft 419 kts 192°
2026-04-16 02:55 26.98966 111.42539 34075 ft 420 kts 192°
2026-04-16 02:55 26.93224 111.41569 34081 ft 413 kts 202°
2026-04-16 02:56 26.88003 111.39093 34070 ft 405 kts 216°
2026-04-16 02:56 26.83298 111.35640 34074 ft 405 kts 217°
2026-04-16 02:57 26.78607 111.32152 34076 ft 405 kts 217°
2026-04-16 02:57 26.73893 111.28686 34076 ft 405 kts 217°
2026-04-16 02:58 26.69189 111.25248 34088 ft 403 kts 217°
2026-04-16 02:58 26.64512 111.21832 34072 ft 405 kts 217°
2026-04-16 02:59 26.59794 111.18391 34065 ft 405 kts 217°
2026-04-16 02:59 26.55041 111.15014 34083 ft 404 kts 216°
2026-04-16 03:00 26.50237 111.11764 34071 ft 404 kts 215°
2026-04-16 03:00 26.45455 111.08533 34073 ft 404 kts 215°
2026-04-16 03:01 26.40654 111.05274 34102 ft 405 kts 215°
2026-04-16 03:01 26.35830 111.01993 34076 ft 406 kts 215°
2026-04-16 03:02 26.30998 110.98709 34091 ft 407 kts 215°
2026-04-16 03:02 26.26143 110.95411 34070 ft 409 kts 215°
2026-04-16 03:03 26.21284 110.92112 34087 ft 408 kts 215°
2026-04-16 03:03 26.16428 110.88824 34078 ft 408 kts 215°
2026-04-16 03:04 26.11570 110.85536 34082 ft 410 kts 215°
2026-04-16 03:04 26.06718 110.82254 34077 ft 411 kts 215°
2026-04-16 03:05 26.01834 110.78942 34068 ft 411 kts 215°
2026-04-16 03:05 25.96953 110.75623 34077 ft 411 kts 215°
2026-04-16 03:06 25.92069 110.72303 34070 ft 412 kts 215°
2026-04-16 03:07 25.84710 110.67310 34071 ft 413 kts 215°
2026-04-16 03:07 25.79832 110.64005 34064 ft 413 kts 215°
2026-04-16 03:08 25.74925 110.60683 34068 ft 414 kts 216°
2026-04-16 03:08 25.70021 110.57295 34068 ft 415 kts 216°
2026-04-16 03:09 25.65122 110.53883 34069 ft 416 kts 216°
2026-04-16 03:09 25.60203 110.50472 34057 ft 416 kts 216°
2026-04-16 03:10 25.55294 110.47064 34060 ft 415 kts 217°
2026-04-16 03:10 25.50522 110.43546 34059 ft 414 kts 218°
2026-04-16 03:11 25.45746 110.39996 34056 ft 413 kts 218°
2026-04-16 03:11 25.40962 110.36465 34050 ft 413 kts 218°
2026-04-16 03:12 25.37012 110.33517 34053 ft 412 kts 218°
2026-04-16 03:12 25.32264 110.29968 34052 ft 411 kts 218°
2026-04-16 03:13 25.27529 110.26435 34053 ft 411 kts 218°
2026-04-16 03:13 25.22790 110.22906 34071 ft 411 kts 218°
2026-04-16 03:14 25.18041 110.19369 34073 ft 412 kts 218°
2026-04-16 03:14 25.13274 110.15809 34061 ft 414 kts 218°
2026-04-16 03:15 25.08504 110.12248 34066 ft 414 kts 218°
2026-04-16 03:15 25.03726 110.08684 34057 ft 414 kts 218°
2026-04-16 03:16 24.98950 110.05127 34047 ft 414 kts 218°
2026-04-16 03:16 24.94207 110.01597 34041 ft 414 kts 218°
2026-04-16 03:17 24.89432 109.98046 34034 ft 414 kts 218°
2026-04-16 03:17 24.84660 109.94501 34034 ft 414 kts 218°
2026-04-16 03:18 24.79886 109.90959 34034 ft 414 kts 218°
2026-04-16 03:18 24.75110 109.87416 34029 ft 414 kts 218°
2026-04-16 03:19 24.70358 109.83895 34019 ft 414 kts 219°
2026-04-16 03:19 24.65581 109.80359 34009 ft 413 kts 219°
2026-04-16 03:20 24.60820 109.76827 34012 ft 413 kts 218°
2026-04-16 03:20 24.56061 109.73297 34009 ft 413 kts 218°
2026-04-16 03:21 24.51298 109.69767 34009 ft 413 kts 218°
2026-04-16 03:21 24.46532 109.66240 34008 ft 413 kts 218°
2026-04-16 03:22 24.41764 109.62713 34003 ft 413 kts 218°
2026-04-16 03:22 24.36988 109.59187 33992 ft 413 kts 218°
2026-04-16 03:23 24.32253 109.55699 34007 ft 413 kts 218°
2026-04-16 03:23 24.27472 109.52182 34003 ft 414 kts 218°
2026-04-16 03:24 24.22689 109.48663 33999 ft 414 kts 218°
2026-04-16 03:24 24.17899 109.45144 33994 ft 414 kts 218°
2026-04-16 03:25 24.13119 109.41634 33990 ft 414 kts 218°
2026-04-16 03:25 24.08330 109.38121 33997 ft 414 kts 218°
2026-04-16 03:26 24.03542 109.34610 34000 ft 414 kts 218°
2026-04-16 03:26 23.98752 109.31103 33985 ft 414 kts 218°
2026-04-16 03:27 23.93964 109.27600 33987 ft 414 kts 218°
2026-04-16 03:27 23.89179 109.24102 33991 ft 413 kts 218°
2026-04-16 03:28 23.84435 109.20637 33991 ft 412 kts 218°
2026-04-16 03:28 23.79668 109.17157 33988 ft 412 kts 218°
2026-04-16 03:29 23.74964 109.13617 33989 ft 409 kts 221°
2026-04-16 03:29 23.70492 109.09804 33988 ft 408 kts 222°
2026-04-16 03:30 23.66043 109.05964 33990 ft 407 kts 222°
2026-04-16 03:30 23.61616 109.02168 33996 ft 407 kts 222°
2026-04-16 03:31 23.57154 108.98359 33990 ft 407 kts 222°
2026-04-16 03:31 23.52684 108.94551 33985 ft 407 kts 222°
2026-04-16 03:32 23.48221 108.90753 33988 ft 407 kts 222°
2026-04-16 03:34 23.30362 108.75585 33990 ft 408 kts 222°
2026-04-16 03:34 23.25878 108.71784 33990 ft 409 kts 222°
2026-04-16 03:35 23.21417 108.68004 33992 ft 409 kts 222°
2026-04-16 03:35 23.16919 108.64189 33995 ft 410 kts 222°
2026-04-16 03:36 23.12417 108.60372 33993 ft 411 kts 221°
2026-04-16 03:36 23.07902 108.56547 33992 ft 412 kts 221°
2026-04-16 03:37 23.03374 108.52716 33988 ft 413 kts 221°
2026-04-16 03:37 22.98844 108.48886 33986 ft 413 kts 221°
2026-04-16 03:38 22.94311 108.45054 33986 ft 413 kts 221°
2026-04-16 03:38 22.89785 108.41236 33983 ft 412 kts 221°
2026-04-16 03:39 22.85256 108.37418 33993 ft 411 kts 221°
2026-04-16 03:39 22.80738 108.33610 33991 ft 411 kts 221°
2026-04-16 03:40 22.76220 108.29806 34001 ft 411 kts 221°
2026-04-16 03:40 22.71703 108.26007 34004 ft 411 kts 221°
2026-04-16 03:41 22.67187 108.22210 34014 ft 411 kts 221°
2026-04-16 03:41 22.62696 108.18438 34008 ft 411 kts 222°
2026-04-16 03:41 22.60663 108.16299 34004 ft 406 kts 234°
2026-04-16 03:42 22.59103 108.13759 34017 ft 404 kts 243°
2026-04-16 03:42 22.57269 108.08049 34029 ft 403 kts 258°
2026-04-16 03:43 22.56250 108.02063 34010 ft 405 kts 259°
2026-04-16 03:43 22.55234 107.96061 34001 ft 406 kts 258°
2026-04-16 03:44 22.54186 107.90045 33994 ft 408 kts 258°
2026-04-16 03:44 22.53117 107.84011 33985 ft 408 kts 258°
2026-04-16 03:45 22.52050 107.78017 33982 ft 408 kts 258°
2026-04-16 03:45 22.50974 107.71988 33982 ft 408 kts 258°
2026-04-16 03:46 22.49896 107.65964 33989 ft 407 kts 258°
2026-04-16 03:46 22.48821 107.59965 33978 ft 407 kts 258°
2026-04-16 03:47 22.47744 107.53965 33982 ft 406 kts 258°
2026-04-16 03:47 22.46667 107.47985 33980 ft 405 kts 258°
2026-04-16 03:48 22.45597 107.42054 33988 ft 405 kts 258°
2026-04-16 03:48 22.44504 107.36007 34141 ft 413 kts 258°
2026-04-16 03:48 22.43952 107.32956 34299 ft 414 kts 258°
2026-04-16 03:49 22.43399 107.29905 34538 ft 413 kts 258°
2026-04-16 03:49 22.42847 107.26862 34811 ft 411 kts 258°
2026-04-16 03:49 22.42300 107.23837 35028 ft 410 kts 258°
2026-04-16 03:49 22.41760 107.20806 35220 ft 411 kts 258°
2026-04-16 03:50 22.41224 107.17774 35445 ft 410 kts 259°
2026-04-16 03:50 22.40688 107.14750 35666 ft 409 kts 259°
2026-04-16 03:50 22.40153 107.11729 35863 ft 409 kts 259°
2026-04-16 03:50 22.39616 107.08709 36063 ft 409 kts 259°
2026-04-16 03:51 22.39080 107.05697 36277 ft 408 kts 259°
2026-04-16 03:51 22.38543 107.02688 36468 ft 408 kts 259°
2026-04-16 03:51 22.38006 106.99677 36654 ft 408 kts 259°
2026-04-16 03:51 22.37470 106.96678 36861 ft 405 kts 259°
2026-04-16 03:52 22.36935 106.93691 36863 ft 406 kts 259°
2026-04-16 03:52 22.35224 106.87902 36892 ft 408 kts 244°
2026-04-16 03:53 22.32069 106.82843 36877 ft 415 kts 229°
2026-04-16 03:53 22.27930 106.78475 36893 ft 416 kts 227°
2026-04-16 03:54 22.23754 106.74124 36886 ft 417 kts 228°
2026-04-16 03:54 22.19600 106.69730 36887 ft 418 kts 228°
2026-04-16 03:55 22.15289 106.65487 36893 ft 421 kts 223°
2026-04-16 03:55 22.10721 106.61525 36888 ft 422 kts 223°
2026-04-16 03:56 22.06149 106.57560 36890 ft 422 kts 223°
2026-04-16 03:56 22.01588 106.53575 36895 ft 422 kts 223°
2026-04-16 03:57 21.97802 106.50265 36887 ft 421 kts 223°
2026-04-16 03:57 21.92506 106.45627 36900 ft 422 kts 224°
2026-04-16 03:58 21.87959 106.41635 36910 ft 421 kts 224°
2026-04-16 03:58 21.83408 106.37641 36904 ft 422 kts 223°
2026-04-16 03:59 21.78841 106.33639 36888 ft 423 kts 223°
2026-04-16 03:59 21.74304 106.29668 36889 ft 423 kts 224°
2026-04-16 04:00 21.69738 106.25673 36905 ft 423 kts 223°
2026-04-16 04:00 21.65929 106.22344 36894 ft 424 kts 223°
2026-04-16 04:01 21.61343 106.18338 36882 ft 425 kts 223°
2026-04-16 04:01 21.56755 106.14334 36883 ft 424 kts 223°
2026-04-16 04:02 21.52169 106.10335 36886 ft 424 kts 223°
2026-04-16 04:02 21.47577 106.06334 36882 ft 424 kts 223°
2026-04-16 04:03 21.43019 106.02367 36878 ft 424 kts 223°
2026-04-16 04:03 21.38436 105.98380 36881 ft 424 kts 223°
2026-04-16 04:04 21.33848 105.94392 36880 ft 424 kts 223°
2026-04-16 04:04 21.29262 105.90408 36878 ft 424 kts 223°
2026-04-16 04:05 21.24687 105.86409 36880 ft 423 kts 227°
2026-04-16 04:05 21.21033 105.81567 36885 ft 416 kts 241°
2026-04-16 04:06 21.18672 105.75952 36896 ft 413 kts 251°
2026-04-16 04:06 21.16754 105.70129 36884 ft 414 kts 252°
2026-04-16 04:07 21.14830 105.64293 36878 ft 416 kts 252°
2026-04-16 04:07 21.11896 105.55532 36871 ft 417 kts 251°
2026-04-16 04:08 21.09937 105.49720 36865 ft 418 kts 251°
2026-04-16 04:08 21.07957 105.43859 36865 ft 418 kts 251°
2026-04-16 04:09 21.05974 105.37995 36863 ft 419 kts 251°
2026-04-16 04:09 21.03983 105.32116 36865 ft 420 kts 251°
2026-04-16 04:10 21.01989 105.26236 36866 ft 420 kts 251°
2026-04-16 04:10 20.99997 105.20368 36859 ft 419 kts 251°
2026-04-16 04:11 20.98010 105.14519 36859 ft 418 kts 251°
2026-04-16 04:11 20.96035 105.08715 36864 ft 417 kts 251°
2026-04-16 04:12 20.94041 105.02862 36869 ft 416 kts 251°
2026-04-16 04:12 20.92075 104.97098 36873 ft 415 kts 251°
2026-04-16 04:13 20.90098 104.91311 36878 ft 414 kts 251°
2026-04-16 04:13 20.88121 104.85529 36865 ft 414 kts 251°
2026-04-16 04:14 20.86143 104.79750 36871 ft 414 kts 251°
2026-04-16 04:14 20.84122 104.73990 36858 ft 415 kts 246°
2026-04-16 04:15 20.80858 104.68891 36862 ft 420 kts 230°
2026-04-16 04:15 20.76353 104.64876 36876 ft 427 kts 219°
2026-04-16 04:16 20.71492 104.61201 36850 ft 429 kts 219°
2026-04-16 04:16 20.66625 104.57504 36855 ft 430 kts 219°
2026-04-16 04:17 20.61756 104.53761 36852 ft 432 kts 219°
2026-04-16 04:17 20.56872 104.49998 36850 ft 433 kts 219°
2026-04-16 04:18 20.51981 104.46228 36847 ft 433 kts 220°
2026-04-16 04:18 20.47089 104.42462 36853 ft 433 kts 219°
2026-04-16 04:19 20.42228 104.38718 36850 ft 433 kts 220°
2026-04-16 04:19 20.37362 104.34905 36849 ft 433 kts 220°
2026-04-16 04:20 20.32512 104.31086 36859 ft 433 kts 220°
2026-04-16 04:20 20.27656 104.27269 36860 ft 434 kts 220°
2026-04-16 04:21 20.22796 104.23458 36853 ft 433 kts 220°
2026-04-16 04:21 20.17968 104.19677 36859 ft 433 kts 220°
2026-04-16 04:22 20.13107 104.15874 36873 ft 433 kts 220°
2026-04-16 04:22 20.08247 104.12074 36869 ft 433 kts 220°
2026-04-16 04:23 20.03383 104.08273 36863 ft 433 kts 220°
2026-04-16 04:23 19.98550 104.04499 36875 ft 433 kts 220°
2026-04-16 04:24 19.93689 104.00707 36874 ft 434 kts 219°
2026-04-16 04:24 19.88813 103.96905 36861 ft 435 kts 219°
2026-04-16 04:25 19.83926 103.93099 36863 ft 435 kts 219°
2026-04-16 04:25 19.79037 103.89295 36869 ft 436 kts 219°
2026-04-16 04:26 19.74160 103.85506 36861 ft 436 kts 220°
2026-04-16 04:26 19.69233 103.81674 36867 ft 436 kts 219°
2026-04-16 04:27 19.64370 103.77896 36870 ft 436 kts 219°
2026-04-16 04:27 19.59468 103.74093 36865 ft 436 kts 219°
2026-04-16 04:28 19.54570 103.70295 36868 ft 436 kts 219°
2026-04-16 04:28 19.49671 103.66499 36868 ft 436 kts 219°
2026-04-16 04:29 19.44780 103.62711 36883 ft 435 kts 219°
2026-04-16 04:29 19.39874 103.58931 36879 ft 436 kts 219°
2026-04-16 04:30 19.34960 103.55189 36889 ft 435 kts 219°
2026-04-16 04:30 19.30039 103.51443 36893 ft 435 kts 219°
2026-04-16 04:31 19.25126 103.47698 36906 ft 435 kts 219°
2026-04-16 04:31 19.20238 103.43977 36905 ft 435 kts 219°
2026-04-16 04:32 19.15317 103.40232 36904 ft 436 kts 219°
2026-04-16 04:32 19.10353 103.36458 36910 ft 437 kts 219°
2026-04-16 04:33 19.05450 103.32732 36897 ft 437 kts 219°
2026-04-16 04:33 19.00506 103.28978 36897 ft 438 kts 219°
2026-04-16 04:34 18.95560 103.25226 36891 ft 438 kts 218°
2026-04-16 04:34 18.90604 103.21468 36901 ft 438 kts 218°
2026-04-16 04:35 18.85656 103.17720 36899 ft 438 kts 218°
2026-04-16 04:35 18.80702 103.13970 36901 ft 438 kts 218°
2026-04-16 04:36 18.75748 103.10222 36897 ft 438 kts 218°
2026-04-16 04:36 18.70792 103.06475 36890 ft 438 kts 218°
2026-04-16 04:37 18.65860 103.02749 36882 ft 438 kts 218°
2026-04-16 04:37 18.60900 102.99006 36891 ft 438 kts 218°
2026-04-16 04:38 18.55938 102.95263 36881 ft 438 kts 218°
2026-04-16 04:38 18.50975 102.91523 36872 ft 438 kts 218°
2026-04-16 04:39 18.46016 102.87788 36869 ft 438 kts 218°
2026-04-16 04:39 18.41059 102.84057 36868 ft 438 kts 218°
2026-04-16 04:40 18.36127 102.80347 36875 ft 438 kts 218°
2026-04-16 04:40 18.31157 102.76612 36856 ft 439 kts 218°
2026-04-16 04:41 18.26184 102.72877 36861 ft 439 kts 218°
2026-04-16 04:41 18.21199 102.69136 36860 ft 439 kts 218°
2026-04-16 04:42 18.16216 102.65398 36857 ft 440 kts 218°
2026-04-16 04:42 18.11255 102.61680 36855 ft 440 kts 218°
2026-04-16 04:43 18.06269 102.57945 36857 ft 440 kts 218°
2026-04-16 04:43 18.01225 102.54279 36858 ft 442 kts 212°
2026-04-16 04:44 17.95572 102.51688 36858 ft 445 kts 203°
2026-04-16 04:44 17.89759 102.49405 36856 ft 445 kts 204°
2026-04-16 04:45 17.84015 102.47069 36859 ft 446 kts 204°
2026-04-16 04:45 17.78222 102.44726 36865 ft 446 kts 204°
2026-04-16 04:46 17.72424 102.42401 36865 ft 446 kts 203°
2026-04-16 04:46 17.67594 102.40464 36868 ft 446 kts 203°
2026-04-16 04:47 17.60814 102.37744 36872 ft 446 kts 203°
2026-04-16 04:47 17.55014 102.35416 36872 ft 446 kts 203°
2026-04-16 04:48 17.50193 102.33483 36877 ft 446 kts 203°
2026-04-16 04:48 17.43447 102.30780 36876 ft 446 kts 203°
2026-04-16 04:49 17.37649 102.28458 36876 ft 446 kts 203°
2026-04-16 04:49 17.32830 102.26530 36877 ft 446 kts 203°
2026-04-16 04:50 17.27001 102.24198 36881 ft 445 kts 203°
2026-04-16 04:50 17.21246 102.21898 36877 ft 445 kts 203°
2026-04-16 04:51 17.15458 102.19587 36878 ft 445 kts 203°
2026-04-16 04:51 17.09670 102.17277 36879 ft 445 kts 203°
2026-04-16 04:52 17.03879 102.14967 36878 ft 445 kts 203°
2026-04-16 04:52 16.98088 102.12658 36877 ft 446 kts 203°
2026-04-16 04:53 16.92283 102.10346 36873 ft 446 kts 203°
2026-04-16 04:53 16.86487 102.08038 36867 ft 446 kts 203°
2026-04-16 04:54 16.80688 102.05731 36879 ft 446 kts 203°
2026-04-16 04:54 16.74891 102.03426 36876 ft 446 kts 203°
2026-04-16 04:55 16.69090 102.01120 36871 ft 446 kts 203°
2026-04-16 04:55 16.63489 101.98454 36874 ft 443 kts 214°
2026-04-16 04:56 16.58747 101.94391 36882 ft 441 kts 225°
2026-04-16 04:56 16.54312 101.89967 36878 ft 441 kts 225°
2026-04-16 04:57 16.49893 101.85574 36880 ft 441 kts 224°
2026-04-16 04:57 16.45425 101.81175 36875 ft 441 kts 224°
2026-04-16 04:58 16.40957 101.76797 36877 ft 442 kts 224°
2026-04-16 04:58 16.36480 101.72416 36875 ft 441 kts 224°
2026-04-16 04:59 16.32004 101.68039 36883 ft 441 kts 224°
2026-04-16 04:59 16.27524 101.63660 36886 ft 441 kts 224°
2026-04-16 05:00 16.23052 101.59292 36885 ft 441 kts 224°
2026-04-16 05:00 16.18571 101.54917 36882 ft 442 kts 224°
2026-04-16 05:01 16.14083 101.50538 36880 ft 442 kts 224°
2026-04-16 05:01 16.09606 101.46174 36881 ft 442 kts 224°
2026-04-16 05:02 16.05148 101.41830 36879 ft 441 kts 224°
2026-04-16 05:02 16.00666 101.37467 36878 ft 441 kts 224°
2026-04-16 05:03 15.96184 101.33105 36875 ft 442 kts 224°
2026-04-16 05:04 15.89450 101.26558 36878 ft 441 kts 224°
2026-04-16 05:04 15.84965 101.22200 36871 ft 441 kts 224°
2026-04-16 05:05 15.80452 101.17818 36274 ft 447 kts 224°
2026-04-16 05:05 15.78185 101.15618 35681 ft 446 kts 224°
2026-04-16 05:05 15.75951 101.13451 35161 ft 445 kts 223°
2026-04-16 05:05 15.73700 101.11268 34704 ft 442 kts 223°
2026-04-16 05:06 15.71462 101.09098 34255 ft 439 kts 223°
2026-04-16 05:06 15.69234 101.06939 33774 ft 437 kts 223°
2026-04-16 05:06 15.67015 101.04790 33277 ft 434 kts 223°
2026-04-16 05:06 15.64819 101.02662 32827 ft 431 kts 223°
2026-04-16 05:07 15.62636 101.00548 32379 ft 428 kts 223°
2026-04-16 05:07 15.60467 100.98449 31938 ft 425 kts 223°
2026-04-16 05:07 15.58314 100.96365 31510 ft 422 kts 223°
2026-04-16 05:07 15.56172 100.94293 31084 ft 419 kts 223°
2026-04-16 05:08 15.54041 100.92231 30638 ft 418 kts 223°
2026-04-16 05:08 15.51920 100.90180 30217 ft 415 kts 223°
2026-04-16 05:08 15.49806 100.88137 29752 ft 414 kts 223°
2026-04-16 05:08 15.47705 100.86107 29279 ft 411 kts 223°
2026-04-16 05:09 15.45620 100.84093 28815 ft 408 kts 223°
2026-04-16 05:09 15.43555 100.82098 28373 ft 404 kts 223°
2026-04-16 05:09 15.41508 100.80122 27939 ft 401 kts 223°
2026-04-16 05:09 15.39472 100.78156 27508 ft 398 kts 223°
2026-04-16 05:10 15.37451 100.76205 27085 ft 396 kts 223°
2026-04-16 05:10 15.35442 100.74266 26655 ft 393 kts 223°
2026-04-16 05:10 15.33447 100.72342 26242 ft 391 kts 223°
2026-04-16 05:10 15.31484 100.70450 25817 ft 389 kts 223°
2026-04-16 05:11 15.29456 100.68605 25394 ft 388 kts 215°
2026-04-16 05:11 15.27071 100.67326 24980 ft 387 kts 200°
2026-04-16 05:11 15.24421 100.66728 24279 ft 394 kts 183°
2026-04-16 05:11 15.21681 100.66683 23789 ft 395 kts 180°
2026-04-16 05:12 15.18929 100.66710 23323 ft 395 kts 179°
2026-04-16 05:12 15.16184 100.66754 22846 ft 393 kts 179°
2026-04-16 05:12 15.13459 100.66795 22421 ft 390 kts 179°
2026-04-16 05:12 15.10752 100.66826 21998 ft 387 kts 179°
2026-04-16 05:13 15.08071 100.66848 21590 ft 384 kts 180°
2026-04-16 05:13 15.05415 100.66864 21183 ft 381 kts 180°
2026-04-16 05:13 15.02778 100.66876 20926 ft 374 kts 180°
2026-04-16 05:13 15.00185 100.66885 20399 ft 376 kts 180°
2026-04-16 05:14 14.97594 100.66893 20140 ft 369 kts 180°
2026-04-16 05:14 14.95032 100.66900 19644 ft 371 kts 180°
2026-04-16 05:14 14.92449 100.66908 19203 ft 371 kts 180°
2026-04-16 05:14 14.89878 100.66916 18809 ft 369 kts 180°
2026-04-16 05:15 14.87316 100.66924 18414 ft 368 kts 180°
2026-04-16 05:15 14.84760 100.66931 17987 ft 367 kts 180°
2026-04-16 05:15 14.82212 100.66939 17563 ft 364 kts 180°
2026-04-16 05:15 14.79684 100.66947 17167 ft 362 kts 180°
2026-04-16 05:16 14.77175 100.66954 16773 ft 359 kts 180°
2026-04-16 05:16 14.74720 100.66962 16396 ft 356 kts 180°
2026-04-16 05:16 14.72250 100.66969 16018 ft 353 kts 180°
2026-04-16 05:16 14.69796 100.66977 15646 ft 351 kts 180°
2026-04-16 05:17 14.67366 100.66984 15272 ft 348 kts 180°
2026-04-16 05:17 14.64954 100.66991 14898 ft 345 kts 180°
2026-04-16 05:17 14.62560 100.66999 14530 ft 343 kts 180°
2026-04-16 05:17 14.60175 100.67005 14149 ft 342 kts 180°
2026-04-16 05:18 14.57805 100.67013 13793 ft 340 kts 180°
2026-04-16 05:18 14.55440 100.67020 13377 ft 339 kts 180°
2026-04-16 05:18 14.53086 100.67027 13005 ft 337 kts 180°
2026-04-16 05:18 14.50750 100.67034 12701 ft 331 kts 180°
2026-04-16 05:19 14.48489 100.67041 12638 ft 320 kts 180°
2026-04-16 05:19 14.46244 100.67047 12097 ft 324 kts 180°
2026-04-16 05:19 14.44016 100.67054 11890 ft 317 kts 180°
2026-04-16 05:19 14.41797 100.67060 11374 ft 317 kts 179°
2026-04-16 05:20 14.39611 100.67065 10982 ft 311 kts 179°
2026-04-16 05:20 14.37466 100.67074 10636 ft 305 kts 179°
2026-04-16 05:20 14.35369 100.67081 10345 ft 298 kts 179°
2026-04-16 05:20 14.33334 100.67086 10200 ft 286 kts 179°
2026-04-16 05:21 14.31385 100.67091 10084 ft 276 kts 179°
2026-04-16 05:21 14.29495 100.67098 9940 ft 275 kts 179°
2026-04-16 05:21 14.27573 100.67105 9660 ft 276 kts 179°
2026-04-16 05:21 14.25658 100.67199 9325 ft 276 kts 166°
2026-04-16 05:22 14.23921 100.67961 9123 ft 270 kts 147°
2026-04-16 05:22 14.22382 100.69067 8862 ft 270 kts 144°
2026-04-16 05:22 14.20869 100.70214 8561 ft 270 kts 143°
2026-04-16 05:22 14.19362 100.71361 8291 ft 269 kts 144°
2026-04-16 05:23 14.17855 100.72505 8015 ft 269 kts 144°
2026-04-16 05:23 14.16342 100.73646 7733 ft 270 kts 144°
2026-04-16 05:23 14.14817 100.74790 7450 ft 271 kts 144°
2026-04-16 05:24 14.13377 100.75869 7178 ft 273 kts 144°
2026-04-16 05:24 14.11836 100.77022 6873 ft 274 kts 144°
2026-04-16 05:24 14.10289 100.78178 6586 ft 275 kts 144°
2026-04-16 05:24 14.08736 100.79335 6281 ft 276 kts 144°
2026-04-16 05:25 14.07177 100.80497 5987 ft 277 kts 144°
2026-04-16 05:25 14.05630 100.81650 5851 ft 271 kts 144°
2026-04-16 05:25 14.04135 100.82763 5712 ft 266 kts 144°
2026-04-16 05:25 14.02636 100.83846 5578 ft 258 kts 152°
2026-04-16 05:26 14.00961 100.84318 5417 ft 249 kts 179°
2026-04-16 05:26 13.99238 100.84066 5161 ft 246 kts 195°
2026-04-16 05:26 13.97618 100.83623 4911 ft 242 kts 195°
2026-04-16 05:26 13.96012 100.83188 4679 ft 234 kts 195°
2026-04-16 05:27 13.94477 100.82776 4498 ft 221 kts 195°
2026-04-16 05:27 13.93040 100.82392 4306 ft 206 kts 195°
2026-04-16 05:27 13.91699 100.82047 4201 ft 187 kts 194°
2026-04-16 05:27 13.90482 100.81735 4065 ft 176 kts 195°
2026-04-16 05:28 13.89304 100.81423 3881 ft 175 kts 195°
2026-04-16 05:28 13.88128 100.81117 3650 ft 171 kts 195°
2026-04-16 05:28 13.87008 100.80820 3459 ft 164 kts 195°
2026-04-16 05:28 13.85915 100.80531 3216 ft 158 kts 195°
2026-04-16 05:29 13.84855 100.80253 3038 ft 162 kts 194°
2026-04-16 05:29 13.83754 100.79960 2780 ft 161 kts 194°
2026-04-16 05:29 13.82694 100.79684 2625 ft 157 kts 195°
2026-04-16 05:29 13.81651 100.79404 2412 ft 152 kts 195°
2026-04-16 05:30 13.80628 100.79159 2189 ft 156 kts 196°
2026-04-16 05:30 13.79566 100.78851 1977 ft 163 kts 199°
2026-04-16 05:30 13.78504 100.78555 1812 ft 156 kts 191°
2026-04-16 05:30 13.77471 100.78307 1744 ft 151 kts 197°
2026-04-16 05:31 13.76395 100.78020 1456 ft 164 kts 193°
2026-04-16 05:31 13.75329 100.77735 1220 ft 152 kts 195°
2026-04-16 05:31 13.74343 100.77474 1027 ft 142 kts 195°
2026-04-16 05:31 13.73415 100.77225 890 ft 137 kts 194°
2026-04-16 05:32 13.72424 100.76921 691 ft 154 kts 193°
2026-04-16 05:32 13.71399 100.76735 452 ft 147 kts 195°
2026-04-16 05:32 13.70438 100.76440 304 ft 144 kts 194°
2026-04-16 05:32 13.69454 100.76185 102 ft 146 kts 195°
2026-04-16 05:33 13.68500 100.75930 23 ft 130 kts 194°
2026-04-16 05:33 13.67708 100.75720 12 ft 102 kts 194°
2026-04-16 05:33 13.67141 100.75570 12 ft 66 kts 194°
2026-04-16 05:33 13.66848 100.75486 12 ft 35 kts 204°
2026-04-16 05:34 13.66676 100.75354 13 ft 20 kts 224°
2026-04-16 05:34 13.66690 100.75262 12 ft 16 kts
2026-04-16 05:34 13.66795 100.75289 12 ft 15 kts 18°
2026-04-16 05:34 13.66896 100.75314 11 ft 15 kts 14°
2026-04-16 05:35 13.66992 100.75339 12 ft 14 kts 14°
2026-04-16 05:35 13.67085 100.75364 12 ft 13 kts 13°
2026-04-16 05:35 13.67173 100.75388 12 ft 13 kts 15°
2026-04-16 05:35 13.67259 100.75410 12 ft 13 kts 13°
2026-04-16 05:36 13.67342 100.75432 12 ft 12 kts 14°
2026-04-16 05:36 13.67424 100.75453 12 ft 12 kts 14°
2026-04-16 05:36 13.67477 100.75468 12 ft 12 kts 14°
2026-04-16 05:36 13.67571 100.75492 12 ft 16 kts 14°
2026-04-16 05:37 13.67684 100.75523 12 ft 17 kts 15°
2026-04-16 05:37 13.67800 100.75552 12 ft 19 kts 12°
2026-04-16 05:37 13.67943 100.75590 12 ft 21 kts 14°
2026-04-16 05:37 13.68085 100.75628 12 ft 21 kts 14°
2026-04-16 05:38 13.68223 100.75664 12 ft 20 kts 14°
2026-04-16 05:38 13.68314 100.75647 12 ft 13 kts 291°
2026-04-16 05:38 13.68338 100.75557 12 ft 13 kts 284°
2026-04-16 05:38 13.68365 100.75451 12 ft 19 kts 284°
2026-04-16 05:39 13.68402 100.75303 12 ft 22 kts 284°
2026-04-16 05:39 13.68441 100.75150 12 ft 22 kts 284°
2026-04-16 05:39 13.68478 100.75001 13 ft 21 kts 284°
2026-04-16 05:39 13.68517 100.74845 14 ft 25 kts 285°
2026-04-16 05:40 13.68561 100.74674 12 ft 24 kts 284°
2026-04-16 05:40 13.68602 100.74512 12 ft 23 kts 285°
2026-04-16 05:40 13.68648 100.74368 12 ft 19 kts 319°
2026-04-16 05:40 13.68744 100.74383 12 ft 14 kts 14°
2026-04-16 05:41 13.68840 100.74410 12 ft 16 kts 15°
2026-04-16 05:41 13.68956 100.74439 12 ft 18 kts 15°
2026-04-16 05:41 13.69061 100.74467 12 ft 10 kts 14°
2026-04-16 05:41 13.69077 100.74494 14 ft 4 kts 104°
2026-04-16 05:42 13.69067 100.74535 12 ft 9 kts 104°
2026-04-16 05:42 13.69060 100.74564 12 ft 0 kts 104°